Location: Atlantic Beach
(40.5890°N, 73.7290°W)
Time: 03:42:14
(UTC+00:00)

GPS 2-04 Rocket1 - Pass Details

Date: 29 October 2020
Orbit: 418 x 545 km, 35.6° (Epoch: 23 November)

Event Time Altitude Azimuth Distance (km) Brightness Sun altitude
Rises 23:33:20 0° 246° (WSW) 2,619 7.5 -19.3°
Reaches altitude 10° 23:35:38 10° 238° (WSW) 1,753 6.2 -19.7°
Maximum altitude 23:39:22 36° 171° (S) 849 3.6 -20.4°
Enters shadow 23:39:45 35° 157° (SSE) 865 3.6 -20.5°
